Regional Weather Roundup
Issued by NWS Sioux Falls, SD

Home | Current Version | Previous Version | Text Only | Print | Product List | Glossary On
Versions: 1 2 3 4 5 6 7 8 9 10 11 12 13 14 15 16 17 18 19 20 21 22 23 24 25 26 27 28 29 30 31 32 33 34 35 36 37 38 39 40 41 42 43 44 45 46 47 48 49 50
626
ASUS43 KFSD 100910
RWRFSD

WEATHER ROUNDUP FOR SE SOUTH DAKOTA/SW MINNESOTA/NW IOWA
NATIONAL WEATHER SERVICE SIOUX FALLS SD
300 AM CST WED FEB 10 2016

NOTE: "FAIR" INDICATES FEW OR NO CLOUDS BELOW 12,000 FEET WITH NO
SIGNIFICANT WEATHER AND OR OBSTRUCTIONS TO VISIBILITY.


SDZ038>040-050-052>070-101000-
SOUTHEAST SOUTH DAKOTA

CITY           SKY/WX    TMP DP  RH WIND       PRES   REMARKS
BROOKINGS      FLURRIES  15   9  76 SE6       30.04F WCI   6
CHAMBERLAIN    CLOUDY    28  23  83 E6        29.96F WCI  21
HURON          CLOUDY    24  19  81 SE12      30.02F WCI  13
MADISON        CLOUDY    18  18 100 SE9       30.04F WCI   6
MITCHELL       CLOUDY    26  19  74 SE8       30.04F WCI  18
SIOUX FALLS    CLOUDY    21  12  68 E7        30.07F WCI  12
WINNER         FAIR      34  25  69 SW6       29.94F WCI  29
YANKTON        CLOUDY    21  16  79 E7        30.05F WCI  13
$$

MNZ071-072-080-081-089-090-097-098-101000-
SOUTHWEST MINNESOTA

CITY           SKY/WX    TMP DP  RH WIND       PRES   REMARKS
FAIRMONT       CLOUDY     9   1  72 N9        30.09F WCI  -5
JACKSON        CLOUDY    14   9  79 NE7       30.09S WCI   4
LUVERNE        CLOUDY    19  14  79 E3        30.09S
MARSHALL       MOCLDY    12   6  77 NE6       30.11S WCI   3
MONTEVIDEO     CLOUDY     9   1  72 E8        30.14F WCI  -4
PIPESTONE      CLOUDY    18   7  62 CALM      30.06S
REDWOOD FALLS  CLOUDY     9   0  67 NE6       30.13F WCI  -1
TRACY          PTCLDY    14   9  79 NE7       30.09F WCI   4
WINDOM         CLOUDY    10   7  85 NE7       30.09R WCI   0
WORTHINGTON    CLOUDY    14   3  62 N5        30.08S WCI   6
$$

IAZ001>003-012>014-020>022-031-032-NEZ013-014-SDZ071-101000-
NORTHWEST IOWA

CITY           SKY/WX    TMP DP  RH WIND       PRES   REMARKS
CHEROKEE       CLOUDY    18  15  88 CALM      30.10F
DENISON        CLOUDY    18  12  79 CALM      30.10F
ESTHERVILLE    CLOUDY    11   5  77 N9        30.09F WCI  -2
LE MARS        CLOUDY    21  16  79 SE7       30.11F WCI  13
ORANGE CITY    CLOUDY    18  16  93 CALM      30.08F
SHELDON        CLOUDY    18  14  86 CALM      30.08S
SIOUX CITY     CLOUDY    20  14  77 E9        30.09F WCI   9
SPENCER        CLOUDY    17  10  74 N3        30.10F
STORM LAKE     CLOUDY    18  14  86 W6        30.08F WCI   9
$$

ABBREVIATIONS USED IN REMARKS
   TC - TEMPERATURE IN CELSIUS
  WCI - WIND CHILL INDEX
   HX - HEAT INDEX
  VSB - VISIBILITY





USA.gov is the U.S. government's official web portal to all federal, state and local government web resources and services.